Location: Northcutt
(34.7304°N, 84.4305°W)
Time: 04:20:29
(UTC+00:00)

Vanguard 2 - Pass Details

Date: 06 October 2022
Orbit: 553 x 2933 km, 32.9° (Epoch: 04 December)

Event Time Altitude Azimuth Distance (km) Brightness Sun altitude
Rises 19:47:37 0° 269° (W) 4,818 12.2 37.8°
Reaches altitude 10° 19:50:19 10° 269° (W) 4,098 12.0 37.4°
Maximum altitude 20:02:16 83° 183° (S) 2,451 10.8 35.6°
Drops below altitude 10° 20:19:52 10° 99° (E) 5,747 11.7 32.7°
Sets 20:24:27 0° 98° (E) 6,780 12.0 31.9°
